Вернуться в каталог

OPS 0100 DEB *

АктивенPO
NORAD 4843·DEBRIS·🇺🇸 United States

Запущен Apr 14, 1967 с Vandenberg Space Force Base

Loading…

Ближайшие Пролёты

TLE

Source: Space-Track
1 04843U 67034E   26219.23180286  .00000112  00000-0  15606-3 0  9994
2 04843  90.3548 143.0054 0027668 349.1524 167.5192 13.52671587280549

Отслеживайте OPS 0100 DEB * в реальном времени с AllMySat

Download on the App Store